JILIN-01 GAOFEN 3G (46459 NORAD) Tracking and Keplerian Element Data

This shows tracking and keplerian element data for the satellite.

Feedback or suggestion? Click here.




ElementValue
Catalog46459
NameJILIN-01 GAOFEN 3G
Epoch Orbit2024
Epoch Day27.22384774
Epoch Year2021
RAAN86.5403
Inclination97.5262
Eccentricity0.0015392
Argument of Perigee187.1664
Mean Anonmoly258.3855
Mean Motion15.09555853
Decay Rate8.57E-06
L11 46459U 20065F 21027.22384774 .00000857 00000-0 57226-4 0 9996
L22 46459 97.5262 86.5403 0015392 187.1664 258.3855 15.09555853 20240

Live tracking and technical data element details for JILIN-01 GAOFEN 3G (NORAD 46459). JILIN-01 GAOFEN 3G can be tracked NOW for your location showing map with azimuth and elevation plus other details from your city location.

Track the satellite on the map from your city or location and see movement details for azimuth, elevation, latitude, longitude, range, height, and movement on the map or in text.







IsCatalogInMostPopularTable: catalog: 46459, numindb: 60
Update: records affected: 1



GetName: 46459 JILIN-01 GAOFEN 3G

Hit Count: updated at: Thu, 28 Jan 2021 12:02:58 GMT